This is the latest recevied weather packets stored in our database for station/object n7wwk-1. If no packets are shown the sender has not sent any weather packets the latest 10 day(s).
| Time | Temp. | Humidity | Pressure | Rain* | Wind** | Luminosity | Snow |
|---|---|---|---|---|---|---|---|
| 1777994536 | 26.67° C | 56% | 1015.3 hPa | 0 mm | - | 661 W/m² | - |
| 1777993805 | 26.11° C | 57% | 1015.3 hPa | 0 mm | - | 600 W/m² | - |
| 1777992604 | 25° C | 60% | 1015.2 hPa | 0 mm | - | 593 W/m² | - |
| 1777990804 | 25° C | 61% | 1015.1 hPa | 0 mm | - | 501 W/m² | - |
| 1777986605 | 23.33° C | 69% | 1015.1 hPa | 0 mm | - | 298 W/m² | - |
| 1777975205 | 14.44° C | 96% | 1013.7 hPa | 0 mm | - | 0 W/m² | - |
| 1777972205 | 15° C | 96% | 1013.4 hPa | 0 mm | - | 0 W/m² | - |
| 1777968605 | 15° C | 94% | 1013.2 hPa | 0 mm | - | 0 W/m² | - |
| 1777966934 | 15° C | 94% | 1013.2 hPa | 0 mm | - | 0 W/m² | - |
| 1777964405 | 15.56° C | 93% | 1013.7 hPa | 0 mm | - | 0 W/m² | - |
| 1777963205 | 15.56° C | 92% | 1013.5 hPa | 0 mm | - | 0 W/m² | - |
| 1777962736 | 15.56° C | 92% | 1013.6 hPa | 0 mm | - | 0 W/m² | - |
| 1777962137 | 15.56° C | 91% | 1013.9 hPa | 0 mm | - | 0 W/m² | - |
| 1777957205 | 17.78° C | 86% | 1015 hPa | 0 mm | - | 0 W/m² | - |
| 1777956004 | 18.33° C | 83% | 1014.7 hPa | 0 mm | - | 0 W/m² | - |
| 1777947005 | 20° C | 74% | 1015 hPa | 0 mm | - | 0 W/m² | - |
| 1777945205 | 20.56° C | 73% | 1014.9 hPa | 0 mm | - | 0 W/m² | - |
| 1777940404 | 21.67° C | 66% | 1014.4 hPa | 0 mm | - | 0 W/m² | - |
| 1777938604 | 22.22° C | 64% | 1013.9 hPa | 0 mm | - | 10 W/m² | - |
| 1777935004 | 24.44° C | 59% | 1013.3 hPa | 0 mm | - | 111 W/m² | - |
| 1777928405 | 26.11° C | 52% | 1013.3 hPa | 0 mm | - | 455 W/m² | - |
| 1777924805 | 26.67° C | 48% | 1013.8 hPa | 0 mm | - | 659 W/m² | - |
| 1777923605 | 26.11° C | 51% | 1014.3 hPa | 0 mm | - | 739 W/m² | - |
| 1777920737 | 26.67° C | 45% | 1014.8 hPa | 0 mm | - | 764 W/m² | - |
| 1777916405 | 26.67° C | 42% | 1015.4 hPa | 0 mm | - | 794 W/m² | - |
* Rain latest hour (hover to see other rain measurements)
** Current wind speed in m/s (hover to see current wind gust speed)